Weather History for KVLL - October, 2012

Change the Weather History Date:

Monday, October 1, 2012

  Actual Average (KDET) Record (KDET)
Temperature  
Mean Temperature 56 °F -  
Max Temperature 66 °F 67 °F 86 °F (1952)
Min Temperature 45 °F 50 °F 35 °F (1960)
Degree Days  
Heating Degree Days 10    
Growing Degree Days 6 (Base 50)    
Moisture  
Dew Point 43 °F    
Average Humidity 62    
Maximum Humidity 90    
Minimum Humidity 37    
Precipitation  
Precipitation 0.00 in - - ()
Sea Level Pressure  
Sea Level Pressure 29.94 in    
Wind  
Wind Speed 2 mph (East)    
Max Wind Speed 6 mph    
Max Gust Speed -    
Visibility 10 miles    
Events      
Averages and records for this station are not official NWS values.
T = Trace of Precipitation, MM = Missing Value Source: NWS Daily Summary

Daily Weather History Graph

Daily Weather History Graph

Search for Another Location

Airport or City:

Trip Planner

Search our weather history database for the weather conditions in past years. The results will help you decide how hot, cold, wet, or windy it might be!

Date:

Astronomy

Oct. 01, 2012 Rise Set
Actual Time 7:30 AM EDT 7:13 PM EDT
Civil Twilight 7:02 AM EDT 7:41 PM EDT
Nautical Twilight 6:29 AM EDT 8:13 PM EDT
Astronomical Twilight 5:56 AM EDT 8:46 PM EDT
Moon 7:46 PM EDT (10/1) 9:01 AM EDT (10/1)
Length of Visible Light 12h 39m
Length of Day
11h 42m
Full, 98% of the Moon is Illuminated
Oct 1
Full
Oct 8
Last Quarter
Oct 15
New
Oct 21
First Quarter
Oct 29
Full

Hourly Weather History & Observations

Time (EDT) Temp. Dew Point Humidity Pressure Visibility Wind Dir Wind Speed Gust Speed Precip Events Conditions
12:14 AM 50.5 °F 44.6 °F 80% 29.98 in 10.0 mi North 3.5 mph - N/A   Clear
12:35 AM 50.5 °F 44.6 °F 80% 29.98 in 10.0 mi Calm Calm - N/A   Clear
12:55 AM 49.6 °F 44.2 °F 82% 29.97 in 10.0 mi Calm Calm - N/A   Clear
1:14 AM 50.0 °F 44.6 °F 82% 29.97 in 10.0 mi Calm Calm - N/A   Clear
1:35 AM 48.0 °F 43.3 °F 84% 29.95 in 10.0 mi NNE 3.5 mph - N/A   Clear
1:55 AM 47.5 °F 43.3 °F 86% 29.95 in 10.0 mi Calm Calm - N/A   Clear
2:15 AM 47.7 °F 43.7 °F 86% 29.95 in 10.0 mi Calm Calm - N/A   Clear
2:35 AM 47.8 °F 43.2 °F 84% 29.95 in 10.0 mi Calm Calm - N/A   Clear
2:54 AM 47.1 °F 43.0 °F 86% 29.96 in 10.0 mi WNW 3.5 mph - N/A   Clear
3:35 AM 46.8 °F 42.8 °F 86% 29.96 in 10.0 mi West 3.5 mph - N/A   Clear
3:55 AM 46.9 °F 42.8 °F 86% 29.95 in 10.0 mi Calm Calm - N/A   Clear
4:34 AM 46.6 °F 42.8 °F 87% 29.95 in 10.0 mi WNW 3.5 mph - N/A   Clear
5:15 AM 46.6 °F 43.2 °F 88% 29.96 in 10.0 mi WNW 3.5 mph - N/A   Clear
5:55 AM 46.4 °F 42.8 °F 87% 29.96 in 10.0 mi Calm Calm - N/A   Clear
6:15 AM 46.6 °F 43.0 °F 87% 29.96 in 10.0 mi Calm Calm - N/A   Clear
6:34 AM 46.8 °F 43.3 °F 88% 29.96 in 10.0 mi WNW 3.5 mph - N/A   Clear
6:55 AM 46.4 °F 43.0 °F 88% 29.97 in 10.0 mi Calm Calm - N/A   Clear
7:14 AM 45.9 °F 42.3 °F 87% 29.97 in 10.0 mi Calm Calm - N/A   Clear
7:35 AM 45.9 °F 43.0 °F 90% 29.97 in 10.0 mi Calm Calm - N/A   Clear
8:15 AM 48.2 °F 44.6 °F 87% 29.98 in 10.0 mi Calm Calm - N/A   Clear
8:35 AM 49.1 °F 45.1 °F 86% 29.98 in 10.0 mi Calm Calm - N/A   Clear
8:54 AM 51.1 °F 46.4 °F 84% 29.98 in 10.0 mi Calm Calm - N/A   Clear
9:15 AM 52.7 °F 46.8 °F 80% 29.99 in 10.0 mi Calm Calm - N/A   Clear
9:35 AM 54.7 °F 47.1 °F 76% 29.99 in 10.0 mi Calm Calm - N/A   Clear
9:54 AM 56.7 °F 46.0 °F 68% 29.98 in 10.0 mi Calm Calm - N/A   Clear
10:15 AM 58.1 °F 45.5 °F 63% 29.98 in 10.0 mi North 3.5 mph - N/A   Clear
10:34 AM 59.5 °F 46.2 °F 61% 29.98 in 10.0 mi Calm Calm - N/A   Clear
10:55 AM 60.4 °F 45.1 °F 57% 29.99 in 10.0 mi Calm Calm - N/A   Clear
11:15 AM 61.3 °F 43.7 °F 52% 29.98 in 10.0 mi Calm Calm - N/A   Clear
11:34 AM 61.7 °F 43.3 °F 51% 29.98 in 10.0 mi Calm Calm - N/A   Clear
11:55 AM 62.6 °F 41.2 °F 45% 29.97 in 10.0 mi Calm Calm - N/A   Clear
12:14 PM 63.7 °F 42.1 °F 45% 29.96 in 10.0 mi NE 4.6 mph - N/A   Clear
12:35 PM 63.3 °F 41.7 °F 45% 29.95 in 10.0 mi Calm Calm - N/A   Clear
12:55 PM 64.4 °F 41.0 °F 42% 29.95 in 10.0 mi East 4.6 mph - N/A   Clear
1:14 PM 64.6 °F 40.6 °F 42% 29.94 in 10.0 mi SE 5.8 mph - N/A   Clear
1:35 PM 64.9 °F 39.4 °F 39% 29.93 in 10.0 mi East 4.6 mph - N/A   Clear
1:55 PM 66.4 °F 39.6 °F 37% 29.93 in 10.0 mi East 5.8 mph - N/A   Clear
2:14 PM 66.0 °F 39.7 °F 38% 29.92 in 10.0 mi Calm Calm - N/A   Clear
2:35 PM 65.1 °F 40.6 °F 41% 29.91 in 10.0 mi NNE 4.6 mph - N/A   Clear
2:55 PM 64.9 °F 39.9 °F 40% 29.91 in 10.0 mi ENE 5.8 mph - N/A   Clear
3:15 PM 65.3 °F 40.5 °F 40% 29.91 in 10.0 mi SSE 3.5 mph - N/A   Clear
3:54 PM 65.3 °F 41.7 °F 42% 29.90 in 10.0 mi SE 4.6 mph - N/A   Clear
4:15 PM 64.6 °F 41.2 °F 42% 29.90 in 10.0 mi SE 5.8 mph - N/A   Clear
4:35 PM 65.3 °F 41.4 °F 42% 29.89 in 10.0 mi Calm Calm - N/A   Clear
4:55 PM 65.8 °F 41.2 °F 41% 29.90 in 10.0 mi SSE 4.6 mph - N/A   Clear
5:15 PM 66.0 °F 41.4 °F 41% 29.90 in 10.0 mi Calm Calm - N/A   Clear
5:34 PM 65.1 °F 40.8 °F 41% 29.90 in 10.0 mi East 3.5 mph - N/A   Clear
5:55 PM 66.0 °F 40.8 °F 40% 29.90 in 10.0 mi East 4.6 mph - N/A   Clear
6:15 PM 64.0 °F 41.0 °F 43% 29.90 in 10.0 mi Calm Calm - N/A   Clear
6:34 PM 63.7 °F 39.7 °F 41% 29.89 in 10.0 mi East 5.8 mph - N/A   Clear
6:55 PM 62.1 °F 40.5 °F 45% 29.90 in 10.0 mi ESE 3.5 mph - N/A   Clear
7:15 PM 61.0 °F 41.7 °F 49% 29.89 in 10.0 mi Calm Calm - N/A   Clear
7:34 PM 61.7 °F 40.6 °F 46% 29.90 in 10.0 mi East 3.5 mph - N/A   Clear
7:55 PM 61.2 °F 40.8 °F 47% 29.89 in 10.0 mi East 3.5 mph - N/A   Clear
8:14 PM 59.9 °F 41.2 °F 50% 29.90 in 10.0 mi Calm Calm - N/A   Clear
8:35 PM 60.1 °F 40.1 °F 48% 29.90 in 10.0 mi SE 3.5 mph - N/A   Clear
8:55 PM 59.0 °F 40.8 °F 51% 29.90 in 10.0 mi SE 3.5 mph - N/A   Clear
9:14 PM 59.0 °F 41.2 °F 52% 29.90 in 10.0 mi Calm Calm - N/A   Clear
9:35 PM 57.9 °F 41.9 °F 55% 29.90 in 10.0 mi Calm Calm - N/A   Clear
9:55 PM 57.4 °F 42.4 °F 57% 29.90 in 10.0 mi Calm Calm - N/A   Clear
10:15 PM 57.4 °F 42.3 °F 57% 29.90 in 10.0 mi Calm Calm - N/A   Clear
10:35 PM 57.4 °F 42.8 °F 58% 29.90 in 10.0 mi Calm Calm - N/A   Clear
10:55 PM 57.0 °F 42.8 °F 59% 29.89 in 10.0 mi Calm Calm - N/A   Clear
11:15 PM 57.2 °F 42.8 °F 59% 29.89 in 10.0 mi Calm Calm - N/A   Clear
11:35 PM 56.8 °F 43.3 °F 61% 29.90 in 10.0 mi Calm Calm - N/A   Clear
11:54 PM 56.8 °F 43.9 °F 62% 29.90 in 10.0 mi Calm Calm - N/A   Clear